Flag for U.S.A. Weather past 2 weeks in Bismarck, North Dakota, U.S.A.

Now
68 °F

Fog.


Feels Like: 68 °F
Forecast: 65 / 76 °F
Wind: 8 mph from East

Location: Bismarck Municipal Airport

Current Time: Jun 30, 2015 at 12:22:16 PM

Latest Report: Jun 30, 2015 at 11:52 AM


Visibility: 6 mi

Pressure: 29.92 "Hg

Humidity: 90%

Dew point: 65 °F

Location of BismarckLocation

Historic Weather in Bismarck — Graph

°F

Bismarck temperature yesterday

Maximum temperature yesterday: 92 °F (at 3:52 PM)
Minimum temperature yesterday: 58 °F (at 5:52 AM)
Average temperature yesterday: 76 °F

Past Weeks' High & Low Weather Summary

 TemperatureHumidityPressure
High92 °F (Jun 29, 3:52 PM)100% (Jun 22, 3:52 AM)30.22 "Hg (Jun 22, 3:52 AM)
Low50 °F (Jun 23, 5:52 AM)28% (Jun 29, 3:52 PM)29.66 "Hg (Jun 19, 8:52 PM)
Average67 °F70%29.98 "Hg
* Reported Jun 15 10:52 AM — Jun 30 10:52 AM, Bismarck, Weather by CustomWeather, © 2015

Note: Actual official high and low records may vary slightly from our data, if they occured in-between our weather recording intervals... More about our weather records

Advertising

Bismarck weather history for previous 24 hours

 ConditionsComfort  
Time TempWeatherWind HumidityBarometerVisibility
10:52 AM
Tue, Jun 30
67 °FLight rain. Fog.5 mph90%29.94 "Hg5 mi
9:52 AM67 °FLight rain. Mostly cloudy.7 mph87%29.95 "Hg7 mi
8:52 AM68 °FPassing clouds.6 mph84%29.91 "Hg7 mi
7:52 AM67 °FSunny.5 mph85%29.91 "Hg7 mi
6:52 AM67 °FScattered clouds.9 mph87%29.92 "Hg7 mi
5:52 AM67 °FPassing clouds.8 mph90%29.90 "Hg8 mi
4:52 AM68 °FPassing clouds.9 mph87%29.91 "Hg8 mi
3:52 AM69 °FPassing clouds.10 mph87%29.89 "Hg8 mi
2:52 AM69 °FFog.3 mph87%29.90 "Hg6 mi
1:52 AM70 °FClear.7 mph84%29.90 "Hg6 mi
12:52 AM71 °FPassing clouds.8 mph81%29.91 "Hg6 mi
11:52 PM
Mon, Jun 29
73 °FHaze.7 mph76%29.90 "Hg6 mi
10:52 PM75 °FClear.6 mph69%29.89 "Hg7 mi
9:52 PM75 °FScattered clouds.8 mph71%29.87 "Hg10 mi
8:52 PM81 °FScattered clouds.7 mph60%29.87 "Hg10 mi
7:52 PM85 °FSunny.5 mph50%29.86 "Hg10 mi
6:52 PM90 °FSunny.7 mph33%29.87 "Hg10 mi
5:52 PM91 °FSunny.6 mph31%29.90 "Hg10 mi
4:52 PM92 °FSunny.7 mph28%29.90 "Hg10 mi
3:52 PM92 °FPassing clouds.9 mph28%29.92 "Hg10 mi
2:52 PM90 °FScattered clouds.9 mph32%29.93 "Hg10 mi
1:52 PM90 °FPartly sunny.13 mph32%29.93 "Hg9 mi
12:52 PM87 °FScattered clouds.12 mph37%29.94 "Hg10 mi
Weather by CustomWeather, © 2015

See weather overviewHow to use our weather pages